• în Republica Moldova
  • Lista ţărilor
  • Pe 7 zile
  • Temperatura apei
  • Hartă satelitară
  • Meteo pe hartă
  • Widget-uri
  • user-avatar
    Intrare

    Meteo pe oră la Kalgoorlie

    Astăzi, 20 Noiembrie, Luni

    Timp Temperatura Precipitaţii Vânt Presiune Umiditate
    00:00 +24°C° 0 mm 6 m/s 726 mmHg 48%
    01:00 +24°C° 0 mm 6 m/s 726 mmHg 53%
    02:00 +23°C° 0 mm 6 m/s 726 mmHg 57%
    03:00 +22°C° 0 mm 6 m/s 726 mmHg 59%
    04:00 +22°C° 0 mm 5 m/s 727 mmHg 60%
    05:00 +22°C° 0 mm 5 m/s 727 mmHg 62%
    06:00 +23°C° 0 mm 5 m/s 727 mmHg 56%
    07:00 +26°C° 0 mm 5 m/s 727 mmHg 50%
    08:00 +27°C° 0 mm 5 m/s 727 mmHg 45%
    09:00 +29°C° 0 mm 4 m/s 727 mmHg 38%
    10:00 +32°C° 0 mm 4 m/s 727 mmHg 31%
    11:00 +34°C° 0 mm 4 m/s 727 mmHg 24%
    12:00 +35°C° 0 mm 4 m/s 726 mmHg 20%
    13:00 +36°C° 0 mm 4 m/s 726 mmHg 17%
    14:00 +36°C° 0 mm 4 m/s 725 mmHg 18%
    15:00 +36°C° 0 mm 4 m/s 725 mmHg 17%
    16:00 +37°C° 0 mm 4 m/s 725 mmHg 16%
    17:00 +37°C° 0 mm 4 m/s 725 mmHg 15%
    18:00 +35°C° 0 mm 5 m/s 725 mmHg 16%
    19:00 +34°C° 0 mm 5 m/s 725 mmHg 17%
    20:00 +33°C° 0 mm 6 m/s 725 mmHg 19%
    21:00 +30°C° 0 mm 7 m/s 725 mmHg 27%
    22:00 +28°C° 0 mm 8 m/s 725 mmHg 36%
    23:00 +26°C° 0 mm 8 m/s 725 mmHg 45%

    Mâine, 21 Noiembrie, Marţi

    Timp Temperatura Precipitaţii Vânt Presiune Umiditate
    00:00 +24°C° 0 mm 8 m/s 725 mmHg 51%
    01:00 +22°C° 0 mm 8 m/s 725 mmHg 57%
    02:00 +21°C° 0 mm 7 m/s 725 mmHg 63%
    03:00 +21°C° 0 mm 7 m/s 726 mmHg 65%
    04:00 +20°C° 0 mm 7 m/s 726 mmHg 67%
    05:00 +20°C° 0 mm 7 m/s 726 mmHg 69%
    06:00 +21°C° 0 mm 8 m/s 727 mmHg 65%
    07:00 +22°C° 0 mm 8 m/s 727 mmHg 62%
    08:00 +23°C° 0 mm 8 m/s 728 mmHg 58%
    09:00 +26°C° 0 mm 7 m/s 728 mmHg 53%
    10:00 +27°C° 0 mm 7 m/s 728 mmHg 47%
    11:00 +29°C° 0 mm 7 m/s 728 mmHg 41%
    12:00 +29°C° 0 mm 7 m/s 728 mmHg 39%
    13:00 +31°C° 0 mm 8 m/s 728 mmHg 37%
    14:00 +31°C° 0 mm 8 m/s 728 mmHg 34%
    15:00 +28°C° 0 mm 9 m/s 728 mmHg 38%
    16:00 +27°C° 0 mm 10 m/s 728 mmHg 42%
    17:00 +24°C° 0 mm 11 m/s 728 mmHg 46%
    18:00 +22°C° 0 mm 11 m/s 729 mmHg 48%
    19:00 +21°C° 0 mm 11 m/s 730 mmHg 51%
    20:00 +18°C° 0 mm 10 m/s 731 mmHg 54%
    21:00 +17°C° 0 mm 10 m/s 731 mmHg 54%
    22:00 +16°C° 0 mm 9 m/s 732 mmHg 55%
    23:00 +15°C° 0 mm 9 m/s 732 mmHg 56%

    Poimâine, 22 Noiembrie, Miercuri

    Timp Temperatura Precipitaţii Vânt Presiune Umiditate
    00:00 +13°C° 0 mm 8 m/s 732 mmHg 57%
    01:00 +12°C° 0 mm 8 m/s 732 mmHg 59%
    02:00 +11°C° 0 mm 7 m/s 732 mmHg 61%
    03:00 +11°C° 0 mm 7 m/s 732 mmHg 64%
    04:00 +10°C° 0 mm 7 m/s 732 mmHg 68%
    05:00 +10°C° 0 mm 6 m/s 732 mmHg 71%
    06:00 +11°C° 0 mm 7 m/s 732 mmHg 62%
    07:00 +14°C° 0 mm 7 m/s 733 mmHg 52%
    08:00 +15°C° 0 mm 7 m/s 733 mmHg 43%
    09:00 +17°C° 0 mm 7 m/s 732 mmHg 35%
    10:00 +21°C° 0 mm 7 m/s 732 mmHg 27%
    11:00 +23°C° 0 mm 6 m/s 732 mmHg 20%
    12:00 +24°C° 0 mm 6 m/s 731 mmHg 18%
    13:00 +27°C° 0 mm 6 m/s 731 mmHg 15%
    14:00 +28°C° 0 mm 6 m/s 730 mmHg 13%
    15:00 +28°C° 0 mm 6 m/s 730 mmHg 14%
    16:00 +28°C° 0 mm 7 m/s 730 mmHg 14%
    17:00 +28°C° 0 mm 7 m/s 730 mmHg 15%
    18:00 +27°C° 0 mm 7 m/s 730 mmHg 18%
    19:00 +24°C° 0 mm 7 m/s 731 mmHg 22%
    20:00 +23°C° 0 mm 7 m/s 731 mmHg 26%
    21:00 +21°C° 0 mm 7 m/s 732 mmHg 33%
    22:00 +20°C° 0 mm 8 m/s 732 mmHg 40%
    23:00 +17°C° 0 mm 8 m/s 732 mmHg 47%

    23 Noiembrie, Joi

    Timp Temperatura Precipitaţii Vânt Presiune Umiditate
    00:00 +16°C° 0 mm 7 m/s 732 mmHg 51%
    01:00 +15°C° 0 mm 7 m/s 732 mmHg 55%
    02:00 +14°C° 0 mm 6 m/s 731 mmHg 58%
    03:00 +13°C° 0 mm 6 m/s 732 mmHg 61%
    04:00 +13°C° 0 mm 5 m/s 732 mmHg 64%
    05:00 +12°C° 0 mm 5 m/s 732 mmHg 67%
    06:00 +14°C° 0 mm 5 m/s 732 mmHg 60%
    07:00 +15°C° 0 mm 5 m/s 732 mmHg 52%
    08:00 +17°C° 0 mm 5 m/s 733 mmHg 45%
    09:00 +20°C° 0 mm 5 m/s 732 mmHg 37%
    10:00 +22°C° 0 mm 5 m/s 732 mmHg 29%
    11:00 +25°C° 0 mm 5 m/s 732 mmHg 21%
    12:00 +27°C° 0 mm 5 m/s 731 mmHg 19%
    13:00 +28°C° 0 mm 5 m/s 730 mmHg 17%
    14:00 +29°C° 0 mm 5 m/s 729 mmHg 14%
    15:00 +29°C° 0 mm 5 m/s 729 mmHg 14%
    16:00 +29°C° 0 mm 5 m/s 729 mmHg 14%
    17:00 +29°C° 0 mm 5 m/s 729 mmHg 14%
    18:00 +28°C° 0 mm 5 m/s 729 mmHg 16%
    19:00 +27°C° 0 mm 6 m/s 730 mmHg 18%
    20:00 +26°C° 0 mm 6 m/s 730 mmHg 20%
    21:00 +23°C° 0 mm 6 m/s 730 mmHg 24%
    22:00 +22°C° 0 mm 7 m/s 730 mmHg 28%
    23:00 +21°C° 0 mm 8 m/s 730 mmHg 31%

    24 Noiembrie, Vineri

    Timp Temperatura Precipitaţii Vânt Presiune Umiditate
    00:00 +20°C° 0 mm 7 m/s 730 mmHg 36%
    01:00 +18°C° 0 mm 7 m/s 730 mmHg 40%
    02:00 +17°C° 0 mm 7 m/s 729 mmHg 45%
    03:00 +17°C° 0 mm 6 m/s 729 mmHg 48%
    04:00 +16°C° 0 mm 6 m/s 729 mmHg 51%
    05:00 +15°C° 0 mm 5 m/s 730 mmHg 54%
    06:00 +17°C° 0 mm 6 m/s 730 mmHg 50%
    07:00 +20°C° 0 mm 6 m/s 730 mmHg 45%
    08:00 +21°C° 0 mm 6 m/s 730 mmHg 40%
    09:00 +23°C° 0 mm 5 m/s 730 mmHg 34%
    10:00 +26°C° 0 mm 5 m/s 730 mmHg 28%
    11:00 +29°C° 0 mm 4 m/s 729 mmHg 22%
    12:00 +29°C° 0 mm 4 m/s 728 mmHg 20%
    13:00 +30°C° 0 mm 3 m/s 728 mmHg 17%
    14:00 +31°C° 0 mm 3 m/s 727 mmHg 15%
    15:00 +31°C° 0 mm 3 m/s 727 mmHg 14%
    16:00 +32°C° 0 mm 2 m/s 727 mmHg 14%
    17:00 +32°C° 0 mm 2 m/s 727 mmHg 13%
    18:00 +31°C° 0 mm 3 m/s 727 mmHg 14%
    19:00 +30°C° 0 mm 3 m/s 727 mmHg 14%
    20:00 +29°C° 0 mm 4 m/s 727 mmHg 15%
    21:00 +28°C° 0 mm 5 m/s 727 mmHg 15%
    22:00 +28°C° 0 mm 6 m/s 727 mmHg 16%
    23:00 +27°C° 0 mm 7 m/s 727 mmHg 16%

    25 Noiembrie, Sâmbătă

    Timp Temperatura Precipitaţii Vânt Presiune Umiditate
    00:00 +26°C° 0 mm 7 m/s 727 mmHg 18%
    01:00 +26°C° 0 mm 7 m/s 726 mmHg 19%
    02:00 +24°C° 0 mm 7 m/s 726 mmHg 21%
    03:00 +24°C° 0 mm 6 m/s 726 mmHg 23%
    04:00 +23°C° 0 mm 6 m/s 726 mmHg 25%
    05:00 +23°C° 0 mm 5 m/s 726 mmHg 26%
    06:00 +24°C° 0 mm 6 m/s 726 mmHg 25%
    07:00 +27°C° 0 mm 6 m/s 727 mmHg 24%
    08:00 +28°C° 0 mm 7 m/s 727 mmHg 23%
    09:00 +30°C° 0 mm 7 m/s 727 mmHg 20%
    10:00 +33°C° 0 mm 6 m/s 726 mmHg 17%
    11:00 +35°C° 0 mm 6 m/s 726 mmHg 14%
    12:00 +36°C° 0 mm 5 m/s 726 mmHg 13%
    13:00 +36°C° 0 mm 4 m/s 725 mmHg 12%
    14:00 +37°C° 0 mm 4 m/s 725 mmHg 11%
    15:00 +37°C° 0 mm 4 m/s 724 mmHg 11%
    16:00 +37°C° 0 mm 4 m/s 724 mmHg 11%
    17:00 +37°C° 0 mm 4 m/s 724 mmHg 11%
    18:00 +36°C° 0 mm 5 m/s 724 mmHg 11%
    19:00 +35°C° 0 mm 6 m/s 724 mmHg 12%
    20:00 +34°C° 0 mm 7 m/s 724 mmHg 13%
    21:00 +33°C° 0 mm 7 m/s 724 mmHg 14%
    22:00 +32°C° 0 mm 8 m/s 724 mmHg 16%
    23:00 +31°C° 0 mm 9 m/s 724 mmHg 17%
    Arată mai mult